Estación de Remehue INIA

Ultimos registro cada 15 minutos 26
Estación Fecha / Hora Temperatura Humedad Lluvia Velocidad Dirección Radiación Presion
26 Remehue INIA 05-05-2026 06:15 11,4 99,7 0,1 0,4 307 0 1002
25 Remehue INIA 05-05-2026 06:00 11,4 99,6 0,2 0,5 356 0 1002
24 Remehue INIA 05-05-2026 05:45 11,3 99,8 0,2 0,4 338 0 1002
23 Remehue INIA 05-05-2026 05:30 11,1 99,8 0,1 1,3 349 0 1002
22 Remehue INIA 05-05-2026 05:15 11 99,7 0,4 1,3 352 0 1002
21 Remehue INIA 05-05-2026 05:00 11 99,6 0,3 1 0 0 1002
20 Remehue INIA 05-05-2026 04:45 11,1 99,5 0,5 0,8 18 0 1002
19 Remehue INIA 05-05-2026 04:30 11,1 99,5 0,3 0,8 10 0 1002
18 Remehue INIA 05-05-2026 04:15 11,1 99,5 0,4 0,8 11 0 1002
17 Remehue INIA 05-05-2026 04:00 11 99,5 0,1 0,9 11 0 1003
16 Remehue INIA 05-05-2026 03:45 11 99,4 0,2 0,6 5 0 1003
15 Remehue INIA 05-05-2026 03:30 10,9 99,4 0,2 0,6 9 0 1003
14 Remehue INIA 05-05-2026 03:15 10,9 99,3 0,5 0,2 19 0 1003
13 Remehue INIA 05-05-2026 03:00 10,8 99,1 0,4 0 0 0 1003
12 Remehue INIA 05-05-2026 02:45 10,9 99,1 0,2 0 32 0 1003
11 Remehue INIA 05-05-2026 02:30 10,9 99,1 0,6 0 0 0 1003
10 Remehue INIA 05-05-2026 02:15 10,8 99,2 0,6 0,1 118 0 1003
9 Remehue INIA 05-05-2026 02:00 10,8 99 0,4 0 125 0 1003
8 Remehue INIA 05-05-2026 01:45 10,9 99 0,2 0,6 359 0 1003
7 Remehue INIA 05-05-2026 01:30 10,9 99 0,1 0,2 354 0 1003
6 Remehue INIA 05-05-2026 01:15 10,9 98,9 0,4 0,1 357 0 1003
5 Remehue INIA 05-05-2026 01:00 10,9 98,8 0,3 0,1 8 0 1003
4 Remehue INIA 05-05-2026 00:45 10,9 98,7 0,5 0 0 0 1003
3 Remehue INIA 05-05-2026 00:30 10,8 98,7 0,3 0,3 3 0 1003
2 Remehue INIA 05-05-2026 00:15 10,8 98,6 0,1 0,1 351 0 1003
1 Remehue INIA 05-05-2026 00:00 10,7 98,5 0,3 0,2 13 0 1003